Location: Farmers Branch
(32.9265°N, 96.8961°W)
Time: 05:43:18
(UTC-05:00)

OTV 4 - Pass Details

Date: 30 June 2016
Orbit: 320 x 337 km, 38.0° (Epoch: 25 April)

Event Time Altitude Azimuth Distance (km) Brightness Sun altitude
Rises 21:19:57 0° 222° (SW) 2,095 4.4 -8.0°
Reaches altitude 10° 21:22:08 10° 208° (SSW) 1,262 3.1 -8.4°
Maximum altitude 21:24:33 25° 150° (SSE) 720 1.4 -8.8°
Enters shadow 21:26:59 10° 91° (E) 1,264 2.7 -9.2°
